{"data":{"norad_id":61609,"epoch":"2026-05-25T03:53:34.721088Z","epoch_age_seconds":75117,"freshness":"FRESH","line1":"1 61609U 24188R   26145.16220742  .00000701  00000+0  19718-2 0  9992","line2":"2 61609  87.8872  40.8362 0001143 114.5387 245.5860 13.10372529 80275","mean_motion":13.10372529,"eccentricity":0.0001143,"inclination_deg":87.8872,"raan_deg":40.8362,"arg_perigee_deg":114.5387,"mean_anomaly_deg":245.586,"bstar":0.0019718,"rev_number":8027,"period_min":109.89241365575,"perigee_km":1220.8496008757,"apogee_km":1222.5869277891,"semimajor_km":7599.8552643324,"source":"CELESTRAK","updated_at":"2026-05-25T13:38:22.751153Z"}}